GW5273 Weather Reports


time (UTC)temp
C
wind
direction
speed
KPH
gust
KPH
rain 1hr
cm
rain 24hr
cm
rain mn
cm
humidity
%
barometer
mb
20260503181032 10 7 3.2 4.8 0.00 0.00 0.00 43 1019.0
20260503180529 10 79 0.0 3.2 0.00 0.00 0.00 41 1019.0
20260503180026 8 99 1.6 4.8 0.00 0.00 0.00 43 1019.0
20260503175524 10 58 0.0 4.8 0.00 0.00 0.00 40 1019.2
20260503175020 10 149 1.6 3.2 0.00 0.00 0.00 38 1019.4
20260503174518 10 54 0.0 3.2 0.00 0.00 0.00 41 1019.3
20260503174014 9 89 0.0 1.6 0.00 0.00 0.00 41 1019.1
20260503173509 9 126 1.6 4.8 0.00 0.00 0.00 49 1019.3
20260503173006 9 328 3.2 4.8 0.00 0.00 0.00 49 1019.1
20260503172504 9 36 1.6 1.6 0.00 0.00 0.00 40 1019.3
20260503172001 10 301 3.2 4.8 0.00 0.00 0.00 40 1019.3
20260503171457 10 146 1.6 3.2 0.00 0.00 0.00 46 1019.3
20260503170954 9 147 3.2 4.8 0.00 0.00 0.00 43 1019.4
20260503170450 9 187 3.2 4.8 0.00 0.00 0.00 45 1019.8
20260503150843 6 34 0.0 3.2 0.00 0.00 0.00 55 1020.0
20260503150339 7 109 0.0 1.6 0.00 0.00 0.00 51 1019.7
20260503140303 3 316 0.0 1.6 0.00 0.00 0.00 64 1020.0
20260503131233 2 342 3.2 3.2 0.00 0.00 0.00 79 1019.7
20260503130730 2 325 0.0 4.8 0.00 0.00 0.00 78 1019.7
20260503130227 2 312 0.0 3.2 0.00 0.00 0.00 77 1019.6
20260503120153 1 358 3.2 3.2 0.00 0.00 0.00 84 1019.2
20260503110621 -1 52 0.0 1.6 0.00 0.00 0.00 91 1018.2
20260503110118 -1 52 0.0 1.6 0.00 0.00 0.00 92 1017.9
20260503090508 -1 342 0.0 0.0 0.00 0.00 0.00 91 1017.3
20260503081434 0 340 0.0 0.0 0.00 0.00 0.00 89 1017.3
20260503080931 0 342 0.0 0.0 0.00 0.00 0.00 89 1017.0
20260503080427 0 12 0.0 0.0 0.00 0.00 0.00 89 1016.7
20260503072904 0 65 0.0 0.0 0.00 0.00 0.00 89 1016.7
20260503072401 0 351 0.0 0.0 0.00 0.00 0.00 89 1016.8
20260503071857 0 55 0.0 0.0 0.00 0.00 0.00 88 1016.5
20260503071355 0 336 0.0 0.0 0.00 0.00 0.00 88 1016.5
20260503070851 0 44 0.0 0.0 0.00 0.00 0.00 88 1016.6
20260503070349 0 308 0.0 3.2 0.00 0.00 0.00 88 1016.6
20260503060308 0 297 0.0 0.0 0.00 0.00 0.00 88 1016.5
20260503054755 0 297 0.0 0.0 0.00 0.00 0.00 89 1016.3
20260503054251 0 297 0.0 0.0 0.00 0.00 0.00 88 1016.5
20260503053749 0 297 0.0 3.2 0.00 0.00 0.00 87 1016.6
20260503053248 0 337 0.0 0.0 0.00 0.00 0.00 88 1016.4
20260503052744 0 339 1.6 1.6 0.00 0.00 0.00 87 1016.7
20260503052241 0 275 0.0 0.0 0.00 0.00 0.00 87 1016.6
20260503051736 0 17 0.0 0.0 0.00 0.00 0.00 87 1016.5
20260503051234 0 349 0.0 0.0 0.00 0.00 0.00 86 1016.8
20260503050730 0 358 0.0 0.0 0.00 0.00 0.00 87 1016.7
20260503050226 0 2 0.0 0.0 0.00 0.00 0.00 86 1016.7
20260503045724 0 2 0.0 0.0 0.00 0.00 0.00 88 1016.9
20260503045222 0 318 0.0 0.0 0.00 0.00 0.00 88 1016.7
20260503044718 0 317 0.0 0.0 0.00 0.00 0.00 89 1016.9
20260503044215 0 284 0.0 0.0 0.00 0.00 0.00 88 1017.0
20260503043712 0 280 0.0 0.0 0.00 0.00 0.00 88 1016.8
20260503043210 0 275 0.0 0.0 0.00 0.00 0.00 88 1016.9
20260503042705 0 273 0.0 0.0 0.00 0.00 0.00 88 1016.8
20260503042202 0 275 0.0 0.0 0.00 0.00 0.00 87 1017.0
20260503041658 0 275 0.0 1.6 0.00 0.00 0.00 88 1016.9
20260503041156 0 263 0.0 0.0 0.00 0.00 0.00 87 1017.0
20260503040653 0 262 0.0 0.0 0.00 0.00 0.00 88 1016.8
20260503040151 0 260 0.0 0.0 0.00 0.00 0.00 88 1016.9
20260503035647 0 262 0.0 0.0 0.00 0.00 0.00 87 1016.9
20260503035145 0 262 0.0 0.0 0.00 0.00 0.00 87 1016.9
20260503034642 0 261 0.0 0.0 0.00 0.00 0.00 87 1016.8
20260503034139 0 244 0.0 0.0 0.00 0.00 0.00 87 1017.0
20260503033636 0 244 0.0 0.0 0.00 0.00 0.00 87 1017.0
20260503033134 0 317 0.0 0.0 0.00 0.00 0.00 87 1016.9
20260503032632 0 317 0.0 0.0 0.00 0.00 0.00 87 1016.9
20260503032131 0 312 0.0 1.6 0.00 0.00 0.00 87 1017.0
20260503031627 0 283 0.0 1.6 0.00 0.00 0.00 87 1017.1
20260503031125 0 281 0.0 0.0 0.00 0.00 0.00 87 1017.1
20260503030620 0 237 0.0 0.0 0.00 0.00 0.00 87 1017.3
20260503030118 1 142 0.0 0.0 0.00 0.00 0.00 87 1017.1
20260503025614 1 142 1.6 3.2 0.00 0.00 0.00 89 1017.1
20260503025113 1 34 0.0 0.0 0.00 0.00 0.00 87 1017.0
20260503024608 1 110 0.0 0.0 0.00 0.00 0.00 88 1017.0
20260503024106 1 117 0.0 0.0 0.00 0.00 0.00 87 1017.4
20260503023602 1 4 0.0 3.2 0.00 0.00 0.00 87 1017.4
20260503023100 1 40 0.0 0.0 0.00 0.00 0.00 88 1017.3
20260503022555 1 49 0.0 1.6 0.00 0.00 0.00 88 1017.4
20260503022050 1 20 0.0 1.6 0.00 0.00 0.00 89 1017.3
20260503021547 1 327 0.0 0.0 0.00 0.00 0.00 87 1017.3
20260503021044 1 341 0.0 0.0 0.00 0.00 0.00 87 1017.3
20260503020541 1 283 0.0 0.0 0.00 0.00 0.00 87 1017.3
20260503020038 1 120 0.0 0.0 0.00 0.00 0.00 87 1017.4
20260503015535 1 312 0.0 0.0 0.00 0.00 0.00 87 1017.1
20260503015032 1 326 0.0 1.6 0.00 0.00 0.00 87 1017.0
20260503014528 1 295 0.0 1.6 0.00 0.00 0.00 86 1017.1
20260503014026 1 242 0.0 0.0 0.00 0.00 0.00 86 1017.3
20260503013523 1 242 0.0 1.6 0.00 0.00 0.00 86 1017.0
20260503013021 2 351 0.0 0.0 0.00 0.00 0.00 84 1017.0
20260503012518 2 13 0.0 1.6 0.00 0.00 0.00 83 1017.1
20260503012014 2 34 0.0 0.0 0.00 0.00 0.00 82 1016.9
20260503011511 2 332 0.0 1.6 0.00 0.00 0.00 82 1017.0
20260503011008 2 20 0.0 0.0 0.00 0.00 0.00 80 1016.7
20260503010504 2 272 1.6 1.6 0.00 0.00 0.00 79 1016.8
20260503010002 2 348 0.0 0.0 0.00 0.00 0.00 79 1016.7
20260503005459 2 14 0.0 1.6 0.00 0.00 0.00 77 1016.8
20260503004956 2 9 0.0 1.6 0.00 0.00 0.00 77 1016.6
20260503004452 2 314 0.0 1.6 0.00 0.00 0.00 75 1016.7
20260503003950 2 337 1.6 1.6 0.00 0.00 0.00 73 1016.7
20260503003447 2 126 0.0 3.2 0.00 0.00 0.00 73 1016.4
20260503002944 3 35 0.0 1.6 0.00 0.00 0.00 71 1016.3
20260503002441 3 116 0.0 0.0 0.00 0.00 0.00 71 1016.4
20260503001937 3 322 0.0 0.0 0.00 0.00 0.00 68 1016.3
20260503001434 3 354 0.0 3.2 0.00 0.00 0.00 67 1016.4
20260503000932 3 325 1.6 1.6 0.00 0.00 0.00 66 1016.2
20260503000430 3 325 0.0 0.0 0.00 0.00 0.00 65 1016.2
20260502235926 3 357 1.6 1.6 0.00 0.00 0.00 64 1016.0
20260502235422 3 15 0.0 1.6 0.00 0.00 0.00 62 1016.3
20260502234920 3 11 0.0 1.6 0.00 0.00 0.00 63 1016.0
20260502234416 4 45 0.0 0.0 0.00 0.00 0.00 61 1016.0
20260502233914 4 335 0.0 0.0 0.00 0.00 0.00 61 1015.8
20260502233409 4 44 0.0 0.0 0.00 0.00 0.00 63 1015.8
20260502232906 4 35 0.0 0.0 0.00 0.00 0.00 61 1015.9
20260502232402 4 27 0.0 0.0 0.00 0.00 0.00 61 1015.7
20260502231859 4 351 0.0 0.0 0.00 0.00 0.00 61 1015.8
20260502231357 4 0 0.0 0.0 0.00 0.00 0.00 60 1015.8
20260502230855 4 300 0.0 0.0 0.00 0.00 0.00 59 1015.7
20260502230353 4 51 0.0 0.0 0.00 0.00 0.00 58 1015.8
20260502225849 5 76 0.0 0.0 0.00 0.00 0.00 57 1015.8
20260502225346 5 76 0.0 3.2 0.00 0.00 0.00 55 1015.8
20260502224843 5 353 1.6 1.6 0.00 0.00 0.00 60 1015.7
20260502224339 5 60 0.0 1.6 0.00 0.00 0.00 58 1015.7
20260502223837 5 48 1.6 3.2 0.00 0.00 0.00 56 1015.6
20260502223335 5 100 0.0 0.0 0.00 0.00 0.00 60 1015.7
20260502222832 5 43 0.0 0.0 0.00 0.00 0.00 59 1015.5
20260502222330 5 82 0.0 1.6 0.00 0.00 0.00 60 1015.6
20260502221825 5 111 0.0 0.0 0.00 0.00 0.00 60 1015.6
20260502221321 5 86 0.0 0.0 0.00 0.00 0.00 61 1015.7
20260502220819 5 92 1.6 1.6 0.00 0.00 0.00 59 1015.4
20260502220314 5 77 0.0 3.2 0.00 0.00 0.00 59 1015.5
20260502215811 5 85 0.0 0.0 0.00 0.00 0.00 60 1015.5
20260502215304 5 36 0.0 0.0 0.00 0.00 0.00 56 1015.5
20260502214800 5 8 0.0 1.6 0.00 0.00 0.00 55 1015.3
20260502214257 6 8 0.0 0.0 0.00 0.00 0.00 55 1015.5
20260502213754 6 271 1.6 1.6 0.00 0.00 0.00 55 1015.3
20260502213251 6 12 0.0 3.2 0.00 0.00 0.00 53 1015.3
20260502212750 6 142 0.0 1.6 0.00 0.00 0.00 56 1015.4
20260502212248 6 102 0.0 0.0 0.00 0.00 0.00 56 1015.4
20260502211743 6 61 0.0 0.0 0.00 0.00 0.00 54 1015.4
20260502211240 5 86 0.0 1.6 0.00 0.00 0.00 54 1015.3
20260502210737 5 354 1.6 1.6 0.00 0.00 0.00 54 1015.3
20260502210235 6 49 3.2 4.8 0.00 0.00 0.00 51 1015.4
20260502205732 6 299 0.0 3.2 0.00 0.00 0.00 51 1015.3
20260502205227 6 344 0.0 4.8 0.00 0.00 0.00 51 1015.2
20260502204725 6 342 0.0 3.2 0.00 0.00 0.00 53 1015.5
20260502204222 6 45 0.0 4.8 0.00 0.00 0.00 50 1015.2
20260502203720 7 114 0.0 1.6 0.00 0.00 0.00 57 1015.3
20260502203218 7 21 3.2 6.4 0.00 0.00 0.00 50 1015.1
20260502202711 6 99 0.0 3.2 0.00 0.00 0.00 54 1015.3
20260502202210 6 78 0.0 1.6 0.00 0.00 0.00 50 1015.3
20260502201707 6 224 0.0 1.6 0.00 0.00 0.00 51 1015.6
20260502201204 7 103 1.6 3.2 0.00 0.00 0.00 51 1015.4
20260502200659 7 345 0.0 3.2 0.00 0.00 0.00 50 1015.4
20260502200156 7 196 1.6 3.2 0.00 0.00 0.00 52 1015.6
20260502195655 6 163 0.0 1.6 0.00 0.00 0.00 56 1015.4
20260502195150 6 70 0.0 1.6 0.00 0.00 0.00 52 1015.6
20260502194647 6 215 0.0 1.6 0.00 0.00 0.00 54 1015.6
20260502194144 6 7 0.0 3.2 0.00 0.00 0.00 56 1015.7
20260502193641 6 71 0.0 0.0 0.00 0.00 0.00 51 1015.7
20260502193138 6 57 1.6 1.6 0.00 0.00 0.00 53 1015.8
20260502192633 6 13 0.0 0.0 0.00 0.00 0.00 52 1015.9
20260502192131 6 135 1.6 3.2 0.00 0.00 0.00 53 1015.9
20260502191627 6 59 0.0 1.6 0.00 0.00 0.00 55 1015.9
20260502191125 6 54 0.0 1.6 0.00 0.00 0.00 56 1016.2
20260502190622 6 104 3.2 3.2 0.00 0.00 0.00 58 1016.2
20260502190120 6 60 0.0 0.0 0.00 0.00 0.00 51 1016.3
20260502185614 6 18 0.0 0.0 0.00 0.00 0.00 58 1016.0
20260502185111 6 52 0.0 4.8 0.00 0.00 0.00 53 1016.2
20260502184608 6 77 0.0 1.6 0.00 0.00 0.00 55 1016.2
20260502184103 6 101 0.0 1.6 0.00 0.00 0.00 54 1016.2
20260502183559 6 3 0.0 3.2 0.00 0.00 0.00 56 1016.3
20260502183056 6 39 1.6 1.6 0.00 0.00 0.00 54 1016.4
20260502182551 6 42 0.0 3.2 0.00 0.00 0.00 52 1016.3
20260502182047 6 16 1.6 3.2 0.00 0.00 0.00 58 1016.5
20260502181545 7 47 1.6 3.2 0.00 0.00 0.00 54 1016.4